Home > Weather > Deggendorf > Past weeks

Flag for Germany Past Weather in Deggendorf, Bavaria, Germany — Yesterday and Last 2 Weeks

Now
67 °F

Sunny.


Feels Like: 67 °F
Forecast: 51 / 82 °F
Wind: 5 mph from East

Location: Straubing

Current Time: Aug 25, 2016 at 10:17:01 AM

Latest Report: Aug 25, 2016 at 9:00 AM


Visibility: 14 mi

Pressure: 30.16 "Hg

Humidity: 71%

Dew Point: 58 °F

Location of DeggendorfLocation

Past Weather in Deggendorf — Graph

°F

Deggendorf Temperature Yesterday

Maximum temperature yesterday: 80 °F (at 4:00 PM)
Minimum temperature yesterday: 54 °F (at 7:00 AM)
Average temperature yesterday: 68 °F

High & Low Weather Summary for the Past Weeks

 TemperatureHumidityPressure
High81 °F (Aug 20, 3:00 PM)100% (Aug 13, 6:00 AM)30.42 "Hg (Aug 13, 6:00 AM)
Low44 °F (Aug 11, 6:00 AM)38% (Aug 17, 4:00 PM)29.75 "Hg (Aug 18, 4:00 PM)
Average64 °F75%30.12 "Hg
* Reported Aug 10 9:00 AM — Aug 25 9:00 AM, Deggendorf, Weather by CustomWeather, © 2016

Note: Actual official high and low records may vary slightly from our data, if they occured in-between our weather recording intervals... More about our weather records

Advertising

Deggendorf Weather History for the Previous 24 Hours

Scroll right to see more
 ConditionsComfort  
Time TempWeatherWind HumidityBarometerVisibility
9:00 AM
Thu, Aug 25
67 °FSunny.5 mph71%30.16 "Hg14 mi
7:00 AM56 °FSunny.3 mph91%30.19 "Hg6 mi
6:00 AM56 °FClear.2 mph93%30.19 "Hg8 mi
4:00 AM58 °FClear.2 mph90%30.20 "Hg9 mi
3:00 AM60 °FClear.3 mph85%30.19 "Hg11 mi
1:00 AM64 °FClear.5 mph80%30.20 "Hg16 mi
12:00 AM63 °FClear.3 mph80%30.21 "Hg19 mi
10:00 PM
Wed, Aug 24
65 °FClear.2 mph77%30.21 "Hg25 mi
9:00 PM69 °FClear.2 mph68%30.20 "Hg31 mi
7:00 PM77 °FSunny.3 mph55%30.17 "Hg34 mi
6:00 PM80 °FSunny.2 mph52%30.18 "Hg34 mi
4:00 PM80 °FSunny.3 mph53%30.19 "Hg17 mi
3:00 PM79 °FSunny.5 mph54%30.21 "Hg19 mi
1:00 PM76 °FSunny.5 mph53%30.24 "Hg11 mi
12:00 PM75 °FSunny.5 mph58%30.26 "Hg12 mi
10:00 AM69 °FSunny.2 mph76%30.28 "Hg12 mi
Weather by CustomWeather, © 2016

See weather overviewHow to use our weather pages